Location: Classun
(43.7108°N, 0.4123°W)
Time: 11:50:44
(UTC+00:00)

Daily predictions for brighter satellites

Satellite Brightness Start Highest point End
(mag) Time Altitude Azimuth Time Altitude Azimuth Time Altitude Azimuth
SAR-Lupe-2 4.0 18:40:15 10° SE 18:43:39 43° ENE 18:47:04 10° N
Meteor PRIRODA 4.1 18:45:28 10° SE 18:48:27 32° ENE 18:51:26 10° N
Landsat 7 4.1 18:43:51 10° S 18:48:32 75° WSW 18:53:15 10° NNW
Cosmos 1536 4.1 18:50:04 10° SE 18:52:50 19° E 18:55:36 10° NE
Cosmos 1842 4.1 18:50:04 10° NNE 18:53:12 27° ENE 18:56:18 10° SE
Cosmos 2061 Rocket 4.2 18:47:22 10° S 18:53:47 86° W 19:00:16 10° N
COSMOS 2428 2.7 18:48:22 10° SSW 18:54:01 71° ESE 18:59:45 10° NNE
USA 59 Rocket 0.4 18:50:26 10° NNW 18:54:15 51° NE 18:59:30 10° SE
Cosmos 1707 3.7 18:54:02 10° NNE 18:56:59 24° ENE 18:59:55 10° SE
Cosmos 1818 4.3 18:53:54 10° SW 18:59:17 58° NW 19:04:42 10° NNE
Okean O Rocket 3.3 18:57:42 11° E 19:00:16 17° ENE 19:03:04 10° NNE
Cosmos 1626 4.5 19:02:20 10° NW 19:04:44 22° W 19:07:06 10° SW
USA 306 3.6 19:03:44 10° W 19:06:31 36° NNW 19:09:49 10° NE
Cosmos 2278 Rocket 2.6 19:02:02 10° NNW 19:07:30 46° ENE 19:12:39 11° SE
Meteor 2-4 Rocket 4.5 19:01:39 10° NNW 19:07:30 61° W 19:13:14 10° S
CZ-4B DEB 4.3 19:02:26 10° SSE 19:07:52 62° ENE 19:13:18 10° N
CZ-4 R/B 1.6 19:05:18 10° SE 19:08:56 46° ENE 19:12:40 10° N
Tsikada Rocket 4.5 19:03:58 10° NNW 19:10:13 68° W 19:16:29 10° S
CZ-4B R/B 3.7 19:07:25 10° SE 19:12:27 39° ENE 19:17:25 10° N
Cosmos 1766 Rocket 3.4 19:08:25 10° S 19:12:44 76° E 19:17:08 10° NNE
Cosmos 44 Rocket 4.3 19:09:27 10° NW 19:13:58 44° WSW 19:18:22 10° S
Resurs 01 Rocket 2.2 19:10:24 10° SE 19:14:30 38° ENE 19:18:36 10° N
NOSS 2-1 (C) 3.6 19:10:40 10° NW 19:14:35 78° NE 19:19:47 11° SE
TSX-5 3.7 19:13:32 10° NW 19:16:38 60° WSW 19:19:57 10° SSE
YAOGAN 1 4.0 19:12:51 10° SSW 19:16:52 39° W 19:20:55 10° NNW
ADEOS 3.6 19:11:49 10° SSE 19:17:01 90° WSW 19:22:17 10° NNW
USA 290 2.4 19:14:46 10° NNW 19:18:00 51° ENE 19:20:16 17° SE
Helios 1A 2.8 19:14:03 10° NNE 19:18:07 73° ESE 19:22:09 10° S
GEOS 3 Rocket 3.8 19:13:39 13° SE 19:18:11 58° NE 19:23:17 10° NNW
USA 186 2.3 19:17:45 17° SE 19:19:47 37° ENE 19:22:49 10° N
CZ-4B R/B 3.4 19:15:10 10° SSE 19:19:53 83° WSW 19:24:43 10° NNW
Cosmos 1814 Rocket 4.1 19:15:05 10° SSW 19:20:24 84° WNW 19:25:41 10° NNE
PAYLOAD B 4.3 19:15:29 10° SSE 19:20:59 62° ENE 19:26:32 10° N
Cosmos 1743 4.2 19:18:02 10° SSW 19:21:21 37° WNW 19:24:42 10° N
SPOT 5 4.4 19:22:14 15° E 19:23:16 16° ENE 19:26:01 10° NNE
Okean-O 4.2 19:23:04 16° E 19:24:03 17° ENE 19:26:53 10° NNE
KORONAS-FOTON 3.6 19:20:28 10° N 19:24:09 72° E 19:27:49 10° SSE
Cosmos 1408 Rocket 4.3 19:23:04 10° SSE 19:26:55 31° E 19:30:49 10° NNE
SPOT 1/Viking Rocket 3.7 19:23:00 10° S 19:28:10 75° WSW 19:33:21 10° NNW
ISS -3.8 19:24:52 10° WSW 19:28:13 88° SSE 19:30:43 17° ENE
NOSS 3-3 (A) 4.2 19:23:30 10° S 19:28:15 36° ESE 19:33:36 10° NE
CZ-4B R/B 2.7 19:25:09 10° SSE 19:28:58 78° ENE 19:32:59 10° N
Cosmos 2237 Rocket 2.2 19:27:34 10° S 19:33:04 58° ESE 19:38:35 10° NNE
SL-08 R/B 4.0 19:29:51 10° N 19:34:43 62° WNW 19:39:33 10° SSW
Aureole 3 Rocket 4.4 19:29:29 10° SSE 19:35:49 36° E 19:40:34 10° NNE
CSL-04 Rocket 3.8 19:31:44 14° SE 19:36:11 55° ENE 19:41:22 10° N
Cosmos 2219 Rocket 4.4 19:33:15 10° WSW 19:38:00 27° NW 19:42:48 10° N
Meteor 1-14 Rocket 4.3 19:36:19 10° SSW 19:41:50 77° W 19:47:24 10° N
Cosmos 1674 3.9 19:38:45 10° NNW 19:41:51 37° W 19:44:55 10° SSW
Cosmos 1328 Rocket 4.3 19:38:16 10° NNW 19:42:28 53° W 19:46:38 10° S
Cosmos 1356 Rocket 3.3 19:39:58 10° N 19:44:11 90° W 19:47:40 14° S
SJ-6B 3.9 19:41:14 10° S 19:44:40 40° W 19:48:05 10° NNW
Meteor 1-11 Rocket 3.7 19:39:21 10° S 19:44:52 59° E 19:50:19 10° NNE
Aureole 1 4.3 19:41:58 10° NNW 19:45:07 72° ENE 19:46:28 35° SE
Lacrosse 4 Rocket 3.6 19:42:14 10° NW 19:45:45 24° WSW 19:49:14 10° SSW
Meteor 1-4 Rocket 3.3 19:44:37 10° NNW 19:47:06 36° W 19:49:06 14° SSW
CARTOSAT-1 3.4 19:46:05 16° SSE 19:49:26 89° E 19:53:43 10° NNW
Cosmos 158 Rocket 3.8 19:45:17 10° S 19:50:03 59° ESE 19:54:51 10° NNE
ATLAS CENTAUR R/B 0.8 19:46:41 10° SSW 19:50:10 74° ESE 19:53:52 10° NE
NOSS 2-1 (E) 4.4 19:47:51 10° NW 19:51:54 54° SW 19:56:03 17° SSE
Cosmos 1805 Rocket 3.9 19:52:47 38° E 19:53:00 38° E 19:57:01 10° NNE
Cosmos 1733 3.0 19:53:53 10° SSW 19:57:19 77° W 20:00:46 10° N
USA 276 2.3 19:58:17 10° WNW 20:00:38 55° NW 20:00:38 55° NW
In-Cosmos 22 4.1 19:56:25 10° N 20:02:09 86° E 20:06:01 21° S
Cosmos 1980 3.8 19:56:55 10° SSW 20:02:35 78° WNW 20:08:19 10° NNE
Cosmos 2369 Rocket 3.7 20:00:02 10° N 20:04:10 20° NE 20:05:11 19° ENE
SWARM A 4.3 20:03:48 45° S 20:04:48 86° W 20:08:19 10° N
Sich 1 2.9 20:07:34 54° SE 20:08:09 61° E 20:12:23 10° NNE
BlueWalker 3 3.5 20:08:10 10° WNW 20:11:18 25° SW 20:12:13 23° SSW
Cosmos 1943 Rocket 2.1 20:06:08 10° NNW 20:11:41 86° WSW 20:14:05 35° SSE
CSL-04 Debris 4.4 20:07:38 16° S 20:12:03 70° WSW 20:17:32 10° NNW
Terra 3.2 20:13:52 24° NE 20:13:52 24° NE 20:16:59 10° NNE
ACS3 Solar Sail 1.8 20:09:36 25° SSE 20:13:34 80° ENE 20:20:00 10° N
ERS-1 Rocket 3.9 20:14:03 31° ENE 20:14:03 31° ENE 20:18:17 10° N
Cosmos 1570 Rocket 4.2 20:10:01 10° SSW 20:15:18 73° WNW 20:20:35 10° NNE
Cosmos 2298 Rocket 4.1 20:10:20 10° NNW 20:15:33 56° ENE 20:16:27 49° ESE
Nadezhda 4 Rocket 4.0 20:10:34 10° N 20:16:51 81° W 20:21:40 18° S
Cosmos 2195 Rocket 4.4 20:10:54 10° N 20:17:00 66° E 20:19:12 40° SSE
Cosmos 2150 Rocket 4.0 20:12:10 10° NNW 20:17:15 57° ENE 20:17:56 52° E
USA 32 3.9 20:12:57 10° N 20:18:12 67° E 20:19:24 50° SE
Cosmos 1805 3.9 20:21:37 42° NNE 20:21:37 42° NNE 20:24:07 10° N
Ariane Rocket 4.4 20:24:21 23° NE 20:24:21 23° NE 20:27:31 10° NNE
Cosmos 1315 Rocket 2.8 20:20:13 10° NNW 20:24:12 74° W 20:24:27 70° SW
Cosmos 2026 Rocket 3.9 20:18:09 10° N 20:24:21 63° E 20:25:51 48° SE
Cosmos 1092 Rocket 4.0 20:18:33 10° N 20:24:51 62° E 20:26:28 47° SE
Cosmos 836 Rocket 4.4 20:20:31 10° SSW 20:25:48 89° WNW 20:31:08 10° NNE
SL-16 R/B 2.9 20:35:17 38° ENE 20:35:17 38° ENE 20:38:59 10° NNE
Cosmos 1125 Rocket 4.1 20:28:39 10° NNW 20:33:43 53° WSW 20:35:39 34° SSW
Okean O Rocket 2.2 20:35:02 43° SSW 20:36:06 54° W 20:40:28 10° NNW
Cosmos 1634 Rocket 3.9 20:36:32 55° SE 20:37:39 65° E 20:43:54 10° NNE
Cosmos 1656 Rocket 4.1 20:36:03 10° NNW 20:41:19 45° NE 20:41:19 45° NE
SL-14 R/B 4.2 20:38:02 10° N 20:40:36 41° NNW 20:40:36 41° NNW
CZ-4 R/B 4.2 20:41:48 10° WSW 20:43:43 13° W 20:45:39 10° WNW
USA 59 Rocket 2.4 20:40:20 10° WNW 20:43:45 21° WSW 20:46:30 15° SSW
IRS-1C Rocket 4.2 20:45:02 58° NE 20:45:02 58° NE 20:49:49 10° N
Cosmos 773 Rocket 3.9 20:45:39 84° S 20:45:49 87° ESE 20:51:10 10° NNE
Resurs 01 Rocket 3.9 20:47:47 10° SW 20:51:02 21° W 20:54:24 10° NW
Cosmos 2278 Rocket 3.9 20:46:35 10° NW 20:51:18 28° WSW 20:54:31 17° SSW
Cosmos 1743 Rocket 4.3 20:56:20 48° WNW 20:56:20 48° WNW 21:00:26 10° N
MetOp-B 4.1 20:56:15 75° SW 20:56:29 76° WSW 21:01:52 10° NNW
Cosmos 2228 Rocket 4.2 20:52:26 10° N 20:55:20 38° N 20:55:20 38° N
Okean-O 3.4 21:00:31 49° WNW 21:00:31 49° WNW 21:04:19 10° NNW
SPOT 5 3.3 21:01:22 54° WNW 21:01:22 54° WNW 21:05:20 10° NNW
NOSS 3-3 (C) 4.4 20:59:19 10° WSW 21:04:34 53° NW 21:10:47 10° NNE
ISS -0.8 21:02:28 10° WNW 21:03:42 18° WNW 21:03:42 18° WNW
USA 267 4.2 21:08:22 31° NE 21:10:09 37° NNE 21:16:01 10° NW
Cosmos 2237 Rocket 4.3 21:12:58 10° WSW 21:17:29 24° NW 21:22:02 10° N
Cosmos 2279 Rocket 4.1 21:20:00 69° N 21:20:00 69° N 21:25:26 10° N
Cosmos 1607 4.2 21:16:22 10° SW 21:22:47 67° NW 21:29:13 10° NNE
MOS 1 Rocket 4.4 21:24:48 46° WNW 21:24:48 46° WNW 21:29:18 10° NNW
ATLAS CENTAUR R/B 4.2 21:26:07 10° WNW 21:28:04 14° NW 21:29:51 11° N
Cosmos 2297 4.3 21:24:42 10° NNW 21:28:59 53° NNW 21:28:59 53° NNW
NOSS 3-4 (A) 3.9 21:38:17 10° NW 21:44:37 77° NW 21:44:37 77° NW
NOSS 3-4 (C) 3.9 21:38:24 10° NW 21:44:43 76° NNW 21:44:43 76° NNW
Cosmos 2369 Rocket 3.2 21:43:07 10° NNW 21:46:58 44° NW 21:46:58 44° NW
Terra 3.8 21:52:34 26° NW 21:52:34 26° NW 21:54:57 10° NNW
ACS3 Solar Sail 4.1 21:54:51 12° WSW 21:58:17 17° W 22:02:23 10° NW
SL-16 R/B 4.0 22:17:00 25° WNW 22:17:53 26° NW 22:22:37 10° N
ATLAS 2AS CENTAUR R/B 4.5 22:30:48 10° NNW 22:35:58 22° NNE 22:36:30 22° NNE
USA 267 4.5 22:55:43 35° NW 22:55:43 35° NW 22:59:13 10° NW
Cosmos 2344 4.3 23:20:20 10° NW 23:27:14 62° N 23:27:14 62° N
